Niagara Falls, NY

1:50 AM EDT on June 25, 2017 (GMT -0400)
Niagara Falls International

Weather History for KIAG - October, 2012

Change the Weather History Date:

Wednesday, October 31, 2012

  Actual Average Record
Temperature  
Mean Temperature 44 °F -  
Max Temperature 46 °F 51 °F 73 °F (1989)
Min Temperature 41 °F 35 °F 25 °F (2002)
Degree Days  
Heating Degree Days 22    
Moisture  
Dew Point 39 °F    
Average Humidity 83    
Maximum Humidity 93    
Minimum Humidity 71    
Precipitation  
Precipitation 0.04 in - - ()
Sea Level Pressure  
Sea Level Pressure 29.43 in    
Wind  
Wind Speed 5 mph (SW)    
Max Wind Speed 15 mph    
Max Gust Speed -    
Visibility 10 miles    
Events Rain    
Averages and records for this station are not official NWS values.
T = Trace of Precipitation, MM = Missing Value Source: NWS Daily Summary

Daily Weather History Graph

Daily Weather History Graph

Search for Another Location

Airport or City:

Trip Planner

Search our weather history database for the weather conditions in past years. The results will help you decide how hot, cold, wet, or windy it might be!

Date:

Astronomy

Oct. 31, 2012 Rise Set
Actual Time 7:49 AM EDT 6:08 PM EDT
Civil Twilight 7:20 AM EDT 6:37 PM EDT
Nautical Twilight 6:46 AM EDT 7:11 PM EDT
Astronomical Twilight 6:13 AM EDT 7:44 PM EDT
Moon 7:15 PM EDT (10/31) 9:32 AM EDT (10/31)
Length of Visible Light 11h 17m
Length of Day
10h 18m
Full, 97% of the Moon is Illuminated
Oct 31
Full
Nov 6
Last Quarter
Nov 13
New
Nov 20
First Quarter
Nov 28
Full

Hourly Weather History & Observations

Time (EDT) Temp. Windchill Dew Point Humidity Pressure Visibility Wind Dir Wind Speed Gust Speed Precip Events Conditions
12:53 AM 43.0 °F 41.3 °F 39.0 °F 86% 29.40 in 10.0 mi ESE 3.5 mph - 0.00 in   Partly Cloudy
1:09 AM 42.8 °F 40.1 °F 39.2 °F 87% 29.38 in 10.0 mi East 4.6 mph - N/A   Mostly Cloudy
1:25 AM 42.8 °F 39.3 °F 39.2 °F 87% 29.38 in 10.0 mi ESE 5.8 mph - N/A   Scattered Clouds
1:53 AM 42.1 °F 38.4 °F 39.0 °F 89% 29.40 in 10.0 mi SE 5.8 mph - N/A   Mostly Cloudy
2:53 AM 42.1 °F - 39.0 °F 89% 29.40 in 10.0 mi Calm Calm - N/A   Clear
3:53 AM 42.1 °F 39.2 °F 37.9 °F 85% 29.40 in 10.0 mi SE 4.6 mph - N/A   Mostly Cloudy
4:53 AM 41.0 °F - 37.9 °F 89% 29.41 in 10.0 mi Calm Calm - N/A   Mostly Cloudy
5:53 AM 41.0 °F - 37.9 °F 89% 29.42 in 10.0 mi Calm Calm - N/A   Overcast
6:53 AM 42.1 °F - 37.0 °F 82% 29.42 in 10.0 mi Calm Calm - N/A   Overcast
7:00 AM 42.8 °F - 37.4 °F 81% 29.40 in 10.0 mi Calm Calm - N/A   Overcast
7:53 AM 42.1 °F 40.2 °F 37.0 °F 82% 29.43 in 10.0 mi South 3.5 mph - N/A   Overcast
8:53 AM 42.1 °F 40.2 °F 37.0 °F 82% 29.44 in 10.0 mi South 3.5 mph - N/A   Overcast
9:53 AM 43.0 °F 40.3 °F 37.0 °F 80% 29.44 in 10.0 mi South 4.6 mph - N/A   Overcast
9:56 AM 42.8 °F 40.1 °F 37.4 °F 81% 29.42 in 10.0 mi South 4.6 mph - 0.00 in Rain Light Rain
10:45 AM 44.6 °F 40.2 °F 37.4 °F 76% 29.41 in 10.0 mi South 8.1 mph - 0.00 in   Overcast
10:53 AM 44.1 °F 40.8 °F 37.0 °F 76% 29.44 in 10.0 mi South 5.8 mph - 0.00 in   Overcast
11:53 AM 45.0 °F 41.2 °F 37.0 °F 74% 29.44 in 10.0 mi WSW 6.9 mph - N/A   Overcast
12:53 PM 46.0 °F 43.1 °F 37.9 °F 73% 29.44 in 10.0 mi SW 5.8 mph - N/A   Overcast
1:53 PM 46.0 °F 43.9 °F 37.0 °F 71% 29.44 in 10.0 mi West 4.6 mph - N/A   Overcast
2:15 PM 46.4 °F 42.9 °F 37.4 °F 71% 29.42 in 10.0 mi West 6.9 mph - 0.00 in Rain Light Rain
2:47 PM 46.4 °F 44.3 °F 37.4 °F 71% 29.42 in 10.0 mi WSW 4.6 mph - 0.00 in Rain Light Rain
2:53 PM 45.0 °F 41.8 °F 37.9 °F 76% 29.44 in 10.0 mi WSW 5.8 mph - 0.00 in Rain Light Rain
3:53 PM 46.0 °F 42.5 °F 37.9 °F 73% 29.44 in 10.0 mi SSW 6.9 mph - 0.00 in Rain Light Rain
4:53 PM 45.0 °F 41.2 °F 39.0 °F 80% 29.45 in 10.0 mi SW 6.9 mph - 0.00 in Rain Light Rain
5:09 PM 44.6 °F 40.7 °F 39.2 °F 81% 29.42 in 10.0 mi SW 6.9 mph - 0.00 in Rain Light Rain
5:53 PM 44.1 °F 40.1 °F 39.9 °F 85% 29.45 in 10.0 mi SW 6.9 mph - 0.00 in Rain Light Rain
6:09 PM 44.6 °F 40.2 °F 41.0 °F 87% 29.43 in 10.0 mi SW 8.1 mph - 0.00 in   Overcast
6:42 PM 44.6 °F 41.4 °F 41.0 °F 87% 29.43 in 10.0 mi WSW 5.8 mph - 0.00 in   Overcast
6:53 PM 45.0 °F 41.2 °F 41.0 °F 86% 29.46 in 10.0 mi WSW 6.9 mph - 0.00 in   Overcast
7:06 PM 44.6 °F 40.7 °F 41.0 °F 87% 29.44 in 10.0 mi SW 6.9 mph - 0.00 in Rain Light Rain
7:42 PM 44.6 °F 40.7 °F 42.8 °F 93% 29.43 in 10.0 mi SW 6.9 mph - 0.01 in Rain Light Rain
7:53 PM 45.0 °F 41.2 °F 42.1 °F 90% 29.46 in 10.0 mi SW 6.9 mph - 0.01 in Rain Light Rain
8:33 PM 44.6 °F 40.2 °F 42.8 °F 93% 29.43 in 10.0 mi SW 8.1 mph - 0.00 in Rain Light Rain
8:43 PM 44.6 °F 40.2 °F 42.8 °F 93% 29.43 in 10.0 mi SW 8.1 mph - 0.00 in Rain Light Rain
8:53 PM 45.0 °F 41.2 °F 42.1 °F 90% 29.46 in 10.0 mi WSW 6.9 mph - 0.00 in Rain Light Rain
9:05 PM 44.6 °F 40.7 °F 42.8 °F 93% 29.43 in 10.0 mi WSW 6.9 mph - 0.00 in Rain Light Rain
9:53 PM 45.0 °F 38.9 °F 42.1 °F 90% 29.46 in 9.0 mi West 12.7 mph - 0.01 in Rain Light Rain
10:53 PM 45.0 °F 39.3 °F 41.0 °F 86% 29.47 in 10.0 mi West 11.5 mph - 0.01 in Rain Light Rain
11:34 PM 44.6 °F 37.8 °F 39.2 °F 81% 29.45 in 10.0 mi West 15.0 mph - 0.01 in Rain Light Rain
11:53 PM 44.1 °F 38.1 °F 39.9 °F 85% 29.47 in 10.0 mi West 11.5 mph - 0.01 in Rain Light Rain